N968DT KCOS-

Flight info

Callsign N968DT
Flight time N/A
Altitude VFR
Route /E/
Aircraft DA62/L-VGD/C

Departure

Time 2026-04-21 01:49
Airport City of Colorado Springs Municipal Airport (KCOS)

Arrival

Time N/A
Airport -
Time Latitude Longitude Altitude Speed Heading
2026-04-21 01:37 38.80711 -104.72012 6090 ft 0 kts 359°
2026-04-21 01:40 38.80726 -104.72002 6091 ft 4 kts 58°
2026-04-21 01:41 38.80695 -104.71965 6090 ft 9 kts 172°
2026-04-21 01:41 38.80603 -104.71959 6088 ft 15 kts 180°
2026-04-21 01:41 38.80470 -104.71960 6085 ft 18 kts 181°
2026-04-21 01:41 38.80363 -104.71896 6082 ft 18 kts 90°
2026-04-21 01:42 38.80389 -104.71744 6086 ft 14 kts 26°
2026-04-21 01:42 38.80501 -104.71735 6089 ft 12 kts
2026-04-21 01:42 38.80602 -104.71734 6091 ft 14 kts 359°
2026-04-21 01:42 38.80716 -104.71735 6095 ft 18 kts
2026-04-21 01:43 38.80866 -104.71733 6101 ft 22 kts 360°
2026-04-21 01:43 38.81027 -104.71733 6107 ft 22 kts
2026-04-21 01:43 38.81187 -104.71733 6113 ft 19 kts
2026-04-21 01:43 38.81342 -104.71733 6120 ft 17 kts
2026-04-21 01:44 38.81473 -104.71733 6125 ft 15 kts 360°
2026-04-21 01:44 38.81583 -104.71733 6129 ft 14 kts
2026-04-21 01:44 38.81682 -104.71732 6133 ft 12 kts 360°
2026-04-21 01:44 38.81780 -104.71733 6137 ft 15 kts 360°
2026-04-21 01:45 38.81907 -104.71732 6143 ft 18 kts
2026-04-21 01:45 38.82066 -104.71732 6150 ft 17 kts
2026-04-21 01:45 38.82189 -104.71732 6155 ft 14 kts
2026-04-21 01:45 38.82215 -104.71721 6156 ft 0 kts 35°
2026-04-21 01:46 38.82217 -104.71719 6157 ft 0 kts 37°
2026-04-21 01:46 38.82236 -104.71685 6158 ft 8 kts 69°
2026-04-21 01:47 38.82209 -104.71594 6161 ft 9 kts 160°
2026-04-21 01:47 38.82190 -104.71590 6160 ft 0 kts 179°
2026-04-21 01:48 38.82140 -104.71590 6158 ft 29 kts 180°
2026-04-21 01:48 38.81644 -104.71593 6150 ft 86 kts 179°
2026-04-21 01:49 38.80981 -104.71671 6345 ft 86 kts 183°
2026-04-21 01:49 38.80373 -104.71721 6523 ft 90 kts 173°
2026-04-21 01:49 38.79723 -104.71441 6836 ft 86 kts 137°
2026-04-21 01:49 38.79373 -104.70587 7102 ft 91 kts 105°
2026-04-21 01:50 38.79207 -104.69705 7341 ft 91 kts 107°
2026-04-21 01:50 38.79015 -104.68846 7583 ft 89 kts 105°
2026-04-21 01:50 38.78833 -104.67958 7675 ft 109 kts 103°
2026-04-21 01:50 38.78652 -104.66916 7911 ft 112 kts 101°
2026-04-21 01:51 38.78477 -104.65617 8125 ft 119 kts 100°
2026-04-21 01:51 38.78223 -104.64380 8398 ft 122 kts 107°
2026-04-21 01:51 38.77930 -104.63253 8545 ft 126 kts 106°
2026-04-21 01:51 38.77668 -104.62093 8599 ft 129 kts 95°
2026-04-21 01:52 38.77831 -104.60937 8620 ft 134 kts 63°
2026-04-21 01:52 38.79578 -104.58701 8529 ft 149 kts 40°
2026-04-21 01:52 38.80490 -104.57790 8503 ft 149 kts 40°
2026-04-21 01:53 38.81372 -104.56852 8488 ft 150 kts 41°
2026-04-21 01:53 38.82232 -104.55930 8484 ft 150 kts 40°
2026-04-21 01:53 38.83112 -104.55038 8516 ft 148 kts 39°
2026-04-21 01:53 38.84165 -104.54047 8528 ft 147 kts 35°
2026-04-21 01:54 38.85181 -104.53166 8482 ft 151 kts 39°
2026-04-21 01:54 38.86048 -104.52203 8370 ft 150 kts 47°
2026-04-21 01:54 38.86588 -104.51017 8069 ft 147 kts 71°
2026-04-21 01:54 38.86838 -104.49780 7866 ft 138 kts 76°
2026-04-21 01:55 38.87040 -104.48586 7713 ft 98 kts 83°
2026-04-21 01:55 38.87186 -104.47544 7279 ft 89 kts 83°
2026-04-21 01:55 38.87326 -104.46660 6955 ft 87 kts 82°
2026-04-21 01:55 38.87367 -104.45807 6811 ft 87 kts 85°
2026-04-21 01:56 38.87395 -104.44937 6675 ft 92 kts 89°
2026-04-21 01:56 38.87400 -104.44091 6536 ft 90 kts 88°
2026-04-21 01:56 38.87403 -104.43084 6365 ft 82 kts 88°
2026-04-21 01:56 38.87403 -104.42205 6264 ft 77 kts 88°
2026-04-21 01:57 38.87405 -104.41514 6211 ft 58 kts 89°
2026-04-21 01:57 38.87401 -104.41089 6202 ft 31 kts 88°
2026-04-21 01:57 38.87398 -104.40889 6200 ft 7 kts 91°
2026-04-21 01:57 38.87402 -104.40861 6200 ft 4 kts 89°
2026-04-21 01:58 38.87399 -104.40790 6199 ft 6 kts 104°
2026-04-21 01:58 38.87401 -104.40785 6199 ft 4 kts 270°
2026-04-21 01:58 38.87400 -104.40839 6200 ft 7 kts 269°
2026-04-21 01:58 38.87403 -104.40943 6200 ft 13 kts 271°
2026-04-21 01:59 38.87402 -104.41088 6202 ft 17 kts 270°
2026-04-21 01:59 38.87402 -104.41292 6206 ft 19 kts 271°
2026-04-21 01:59 38.87402 -104.41431 6209 ft 5 kts 270°
2026-04-21 01:59 38.87402 -104.41533 6210 ft 17 kts 270°
2026-04-21 02:00 38.87405 -104.41737 6212 ft 17 kts 270°
2026-04-21 02:00 38.87404 -104.41841 6212 ft 8 kts 266°
2026-04-21 02:00 38.87397 -104.41907 6213 ft 3 kts 259°
2026-04-21 02:00 38.87405 -104.41908 6213 ft 1 kts 107°
2026-04-21 02:01 38.87405 -104.41902 6212 ft 0 kts 90°
2026-04-21 02:02 38.87403 -104.41859 6212 ft 23 kts 88°
2026-04-21 02:02 38.87405 -104.41338 6206 ft 80 kts 89°
2026-04-21 02:02 38.87385 -104.40458 6353 ft 89 kts 89°
2026-04-21 02:03 38.87395 -104.39624 6597 ft 93 kts 89°
2026-04-21 02:03 38.87307 -104.38692 6902 ft 92 kts 111°
2026-04-21 02:03 38.86714 -104.37923 7122 ft 100 kts 149°
2026-04-21 02:03 38.85854 -104.37736 7312 ft 106 kts 176°
2026-04-21 02:04 38.85078 -104.37607 7544 ft 99 kts 151°